Weather History for Linden, NJ

Change the Weather History Date:

Sunday, October 27, 2013

  Actual Average (KEWR) Record (KEWR)
Temperature  
Mean Temperature 52 °F 53 °F  
Max Temperature 60 °F 62 °F 81 °F (1963)
Min Temperature 45 °F 45 °F 27 °F (1936)
Degree Days  
Heating Degree Days 12 12  
Month to date heating degree days 225  
Since 1 July heating degree days 270  
Cooling Degree Days 0 0  
Month to date cooling degree days 14  
Year to date cooling degree days 1188  
Growing Degree Days 2 (Base 50)    
Moisture  
Dew Point 31 °F    
Average Humidity 46    
Maximum Humidity 60    
Minimum Humidity 33    
Precipitation  
Precipitation 0.00 in 0.11 in 1.55 in (1987)
Month to date precipitation 3.14  
Year to date precipitation 38.33  
Snow  
Snow 0.00 in 0.00 in T in (1957)
Month to date snowfall 0.0  
Since 1 July snowfall 0.0  
Snow Depth -    
Sea Level Pressure  
Sea Level Pressure 29.99 in    
Wind  
Wind Speed 7 mph (WNW)    
Max Wind Speed 17 mph    
Max Gust Speed 23 mph    
Visibility 10 miles    
Events      
T = Trace of Precipitation, MM = Missing Value Source: NWS Daily Summary

Daily Weather History Graph

Daily Weather History Graph

Search for Another Location

Airport:

Trip Planner

Search our weather history database for the weather conditions in past years. The results will help you decide how hot, cold, wet, or windy it might be!

Date:

Astronomy

Oct. 27, 2013 Rise Set
Actual Time 7:21 AM EDT 5:59 PM EDT
Civil Twilight 6:53 AM EDT 6:27 PM EDT
Nautical Twilight 6:21 AM EDT 6:59 PM EDT
Astronomical Twilight 5:49 AM EDT 7:31 PM EDT
Moon 12:14 AM EDT (10/27) 2:08 PM EDT (10/27)
Length of Visible Light 11h 34m
Length of Day
10h 37m
Last Quarter, 44% of the Moon is Illuminated
Oct 27
Last Quarter
Nov 3
New
Nov 10
First Quarter
Nov 17
Full
Nov 25
Last Quarter

Hourly Weather History & Observations

Time (EDT) Temp. Windchill Dew Point Humidity Pressure Visibility Wind Dir Wind Speed Gust Speed Precip Events Conditions
12:15 AM 51.8 °F - 31.6 °F 46% 29.92 in 10.0 mi West 6.9 mph - N/A   Overcast
12:35 AM 51.8 °F - 31.6 °F 46% 29.91 in 10.0 mi WSW 4.6 mph - N/A   Overcast
12:55 AM 51.8 °F - 31.6 °F 46% 29.91 in 10.0 mi West 5.8 mph - N/A   Overcast
1:15 AM 51.8 °F - 32.0 °F 47% 29.91 in 10.0 mi West 6.9 mph - N/A   Overcast
1:35 AM 51.8 °F - 32.0 °F 47% 29.90 in 10.0 mi West 6.9 mph - N/A   Overcast
1:55 AM 51.4 °F - 32.0 °F 47% 29.91 in 10.0 mi West 5.8 mph - N/A   Overcast
2:15 AM 51.1 °F - 32.4 °F 49% 29.90 in 10.0 mi West 3.5 mph - N/A   Overcast
2:35 AM 51.1 °F - 32.4 °F 49% 29.90 in 10.0 mi West 5.8 mph - N/A   Overcast
2:55 AM 50.9 °F - 32.5 °F 49% 29.90 in 10.0 mi West 5.8 mph - N/A   Overcast
3:15 AM 50.5 °F - 32.9 °F 51% 29.90 in 10.0 mi West 4.6 mph - N/A   Overcast
3:35 AM 50.0 °F - 32.5 °F 51% 29.89 in 10.0 mi West 3.5 mph - N/A   Overcast
3:55 AM 50.0 °F - 32.2 °F 50% 29.89 in 10.0 mi West 4.6 mph - N/A   Overcast
4:15 AM 50.0 °F - 32.0 °F 50% 29.89 in 10.0 mi West 4.6 mph - N/A   Mostly Cloudy
4:35 AM 49.1 °F - 32.0 °F 52% 29.89 in 10.0 mi West 4.6 mph - N/A   Scattered Clouds
4:55 AM 49.1 °F - 31.8 °F 51% 29.89 in 10.0 mi West 5.8 mph - N/A   Clear
5:15 AM 48.4 °F - 31.8 °F 53% 29.90 in 10.0 mi West 5.8 mph - N/A   Clear
5:35 AM 48.2 °F - 31.6 °F 53% 29.91 in 10.0 mi West 5.8 mph - N/A   Clear
5:55 AM 47.3 °F - 31.6 °F 55% 29.92 in 10.0 mi West 3.5 mph - N/A   Clear
6:15 AM 46.4 °F 45.2 °F 31.5 °F 56% 29.93 in 10.0 mi West 3.5 mph - N/A   Clear
6:35 AM 46.9 °F - 31.3 °F 55% 29.94 in 10.0 mi WSW 4.6 mph - N/A   Clear
6:55 AM 46.4 °F 44.3 °F 31.1 °F 55% 29.94 in 10.0 mi West 4.6 mph - N/A   Clear
7:15 AM 46.2 °F 45.0 °F 31.1 °F 56% 29.94 in 10.0 mi WSW 3.5 mph - N/A   Clear
7:35 AM 46.0 °F 42.5 °F 31.3 °F 56% 29.95 in 10.0 mi West 6.9 mph - N/A   Clear
7:55 AM 45.9 °F 42.3 °F 31.6 °F 58% 29.96 in 10.0 mi West 6.9 mph - N/A   Clear
8:15 AM 46.6 °F - 32.0 °F 57% 29.96 in 10.0 mi West 5.8 mph - N/A   Clear
8:35 AM 47.5 °F - 32.0 °F 55% 29.98 in 10.0 mi WSW 3.5 mph - N/A   Clear
8:55 AM 48.2 °F - 32.4 °F 54% 29.99 in 10.0 mi West 5.8 mph - N/A   Clear
9:15 AM 50.0 °F - 32.9 °F 52% 30.00 in 10.0 mi West 5.8 mph - N/A   Clear
9:35 AM 51.3 °F - 33.3 °F 50% 29.99 in 10.0 mi NW 11.5 mph 17.3 mph N/A   Clear
9:55 AM 52.2 °F - 33.3 °F 49% 30.00 in 10.0 mi WNW 10.4 mph 19.6 mph N/A   Clear
10:15 AM 52.9 °F - 32.9 °F 47% 30.00 in 10.0 mi NW 15.0 mph 21.9 mph N/A   Clear
10:35 AM 54.3 °F - 32.9 °F 44% 30.00 in 10.0 mi NW 16.1 mph 21.9 mph N/A   Clear
10:55 AM 54.9 °F - 32.7 °F 43% 30.00 in 10.0 mi WNW 15.0 mph 18.4 mph N/A   Clear
11:15 AM 55.8 °F - 32.5 °F 41% 30.01 in 10.0 mi NW 10.4 mph 21.9 mph N/A   Clear
11:35 AM 56.1 °F - 32.4 °F 41% 30.01 in 10.0 mi WNW 11.5 mph - N/A   Clear
11:55 AM 56.7 °F - 32.2 °F 40% 30.00 in 10.0 mi NW 11.5 mph 17.3 mph N/A   Clear
12:15 PM 56.7 °F - 32.2 °F 40% 29.99 in 10.0 mi WNW 15.0 mph 20.7 mph N/A   Clear
12:35 PM 57.7 °F - 32.2 °F 38% 29.99 in 2.0 mi WNW 16.1 mph 19.6 mph N/A   Haze
12:55 PM 57.7 °F - 32.2 °F 38% 29.98 in 10.0 mi NW 12.7 mph 19.6 mph N/A   Clear
1:15 PM 59.0 °F - 32.7 °F 37% 29.98 in 10.0 mi NW 11.5 mph 18.4 mph N/A   Clear
1:35 PM 58.5 °F - 32.0 °F 37% 29.98 in 5.0 mi WNW 11.5 mph 17.3 mph N/A   Haze
1:55 PM 60.4 °F - 32.0 °F 34% 29.97 in 10.0 mi NW 13.8 mph 21.9 mph N/A   Scattered Clouds
2:15 PM 60.3 °F - 31.3 °F 34% 29.96 in 10.0 mi WNW 15.0 mph 23.0 mph N/A   Scattered Clouds
2:35 PM 59.9 °F - 30.9 °F 33% 29.97 in 10.0 mi WNW 11.5 mph 21.9 mph N/A   Clear
2:55 PM 60.1 °F - 30.7 °F 33% 29.97 in 10.0 mi NW 10.4 mph - N/A   Scattered Clouds
3:15 PM 60.4 °F - 31.1 °F 33% 29.97 in 0.8 mi WNW 17.3 mph 20.7 mph N/A   Haze
3:35 PM 59.9 °F - 31.1 °F 34% 29.97 in 10.0 mi NW 13.8 mph 21.9 mph N/A   Clear
3:55 PM 60.3 °F - 31.5 °F 34% 29.98 in 10.0 mi NNW 8.1 mph 19.6 mph N/A   Mostly Cloudy
4:15 PM 59.2 °F - 30.2 °F 33% 29.99 in 10.0 mi NW 12.7 mph 23.0 mph N/A   Scattered Clouds
4:35 PM 58.6 °F - 30.2 °F 34% 29.99 in 10.0 mi NW 13.8 mph 21.9 mph N/A   Clear
4:55 PM 58.3 °F - 30.6 °F 35% 30.00 in 10.0 mi NW 16.1 mph - N/A   Scattered Clouds
5:15 PM 57.9 °F - 30.2 °F 35% 30.01 in 10.0 mi WNW 16.1 mph 19.6 mph N/A   Scattered Clouds
5:35 PM 56.7 °F - 29.5 °F 35% 30.01 in 10.0 mi WNW 12.7 mph 18.4 mph N/A   Scattered Clouds
5:55 PM 55.8 °F - 29.3 °F 36% 30.02 in 10.0 mi WNW 10.4 mph 17.3 mph N/A   Clear
6:35 PM 54.0 °F - 29.1 °F 39% 30.04 in 10.0 mi WNW 10.4 mph - N/A   Scattered Clouds
6:55 PM 53.6 °F - 29.1 °F 39% 30.06 in 10.0 mi WNW 9.2 mph - N/A   Clear
7:15 PM 53.1 °F - 29.1 °F 40% 30.07 in 10.0 mi WNW 11.5 mph - N/A   Scattered Clouds
7:35 PM 52.5 °F - 29.5 °F 41% 30.07 in 10.0 mi WNW 8.1 mph - N/A   Scattered Clouds
7:55 PM 51.8 °F - 30.0 °F 43% 30.08 in 10.0 mi WNW 6.9 mph - N/A   Clear
8:15 PM 52.0 °F - 30.2 °F 43% 30.09 in 10.0 mi WNW 4.6 mph - N/A   Clear
8:35 PM 50.9 °F - 30.9 °F 46% 30.09 in 10.0 mi West 5.8 mph - N/A   Clear
8:55 PM 50.7 °F - 30.9 °F 47% 30.10 in 10.0 mi WNW 4.6 mph - N/A   Clear
9:15 PM 50.5 °F - 30.9 °F 47% 30.10 in 10.0 mi West 5.8 mph - N/A   Clear
9:35 PM 50.0 °F - 31.1 °F 48% 30.12 in 10.0 mi West 5.8 mph - N/A   Clear
9:55 PM 50.0 °F - 30.9 °F 48% 30.13 in 10.0 mi West 5.8 mph - N/A   Clear
10:15 PM 49.3 °F - 30.9 °F 49% 30.14 in 10.0 mi West 5.8 mph - N/A   Clear
10:35 PM 48.2 °F - 31.1 °F 52% 30.14 in 10.0 mi WNW 5.8 mph - N/A   Clear
10:55 PM 47.5 °F - 31.1 °F 53% 30.15 in 10.0 mi West 3.5 mph - N/A   Clear
11:15 PM 47.5 °F - 31.1 °F 53% 30.15 in 10.0 mi West 3.5 mph - N/A   Clear
11:35 PM 45.5 °F 43.2 °F 31.6 °F 58% 30.15 in 10.0 mi WNW 4.6 mph - N/A   Clear
11:55 PM 45.1 °F 42.0 °F 32.0 °F 60% 30.16 in 10.0 mi WNW 5.8 mph - N/A   Clear